ARIANE 5 R/B, 49335

Orbit data source: Space-Track

ARIANE 5 R/B, 49335 is space debris in HEO originally from a launch on Sun, 24 Oct 2021 UTC launched from the French Guiana (FRGUI). Debris objects in space refer to the collection of defunct objects orbiting the Earth. Examples of debris include non-operational satellites, rocket bodies, and fragments generated from explosions, collisions, or faulty payload assembly.

Loading next visibility...
Identifier
49335, 2021-095D
Orbit
HEO
Last TLE update
13 hours ago
Origin
Manufacturer
ArianeGroup
Mission
Spacecraft
Bus & Motor
ESC-A, Unknown motor
Mass
~5,000 kg wet, ~5,000 kg dry
Launch date (UTC)
2021-10-24 (4 years ago)
Launch vehicle
Unknown
Launch site
French Guiana (FRGUI)
Object type
Payload
Rocket body
Debris
Shape & HBR
Cyl + 1 Nozzle, 7 m
Radar Cross Section
41.627 m², Large (>1 m²)

Expand to show TLE details & history

TLE from 13 hours ago
0 ARIANE 5 R/B
1 49335U 21095D   25187.62131200  .00010270  00000-0  14631-2 0  9996
2 49335   6.1073  20.6336 7124766 279.3812  12.8579  2.49518653 32581
Epoch: 2025-07-06T14:54Z
TLE epoch observation values (Epoch: 2025-07-06T14:54:41.356Z)
Latitude
-0°
Longitude
-127.92272°
Altitude
3,731.254 km
Speed
7.841 km/s
True Right ascension
01h 22m 22s
True Declination
0° 00' 00"
Sunlit
Object was in daylight at epoch
Visualization orbit readout
Latitude
6.10171°
Longitude
-42.4255°
Altitude
30,216.75 km
Speed
2.104 km/s
Apparent Right ascension
06h 41m 28s
Apparent Declination
0° 16' 09"
Sunlit
Object is in daylight
Visualization observer readout
Local Sidereal Time
15:30:23
Azimuth
300.008° NW
Elevation
-31.231°
Doppler factor
1
Orbital elements
Apogee altitude
32,952.227 km
Perigee altitude
225.399 km
Semi-major axis
22,966.95 km
Eccentricity
0.71248
Inclination
6.1073°
RAAN
20.6336°
Arg. of periapsis
279.3812°
True anomaly
Unknown
Mean anomaly
12.8579°
Eccentric anomaly
Unknown
Mean motion
0.62357 °/min
Orbital period
577.32 mins
BSTAR
0.0014631
Loading maneuver chart data...
Loading SW <> Apogee altitude chart data...
Loading historical data...
Loading historical data...
Loading historical data...
Loading historical data...
Loading historical data...
Loading historical data...
Loading historical data...
Other satellites on launch #95 in the year 2021 (2021-10-24 UTC)

ARIANE 5 R/B Visibility forecast

Observer location: undefined°, undefined°

Span
Click to sort rows by Start time (UTC) header in descending order
Start Az.
Max El. time (UTC)
Max El. Az.
Max El.
End time (UTC)
End Az.
273 mins2025-07-07 20:35:25.429Z251.971° W2025-07-07 22:03:25.429Z249.046° W20.195°2025-07-08 01:08:25.429Z260.904° W
|